| time (UTC) | temp C | wind direction | speed KPH | gust KPH | rain 1hr cm | rain 24hr cm | rain mn cm | humidity % | barometer mb |
| 20260504032847 | 10 | 0.0 | 0.0 | 0.00 | 0.00 | 0.00 | 92 | ||
| 20260504031813 | 10 | 0.0 | 0.0 | 0.00 | 0.00 | 0.00 | 92 | ||
| 20260504030739 | 10 | 0.0 | 0.0 | 0.00 | 0.00 | 0.00 | 92 | ||
| 20260504025705 | 10 | 0.0 | 0.0 | 0.00 | 0.00 | 0.00 | 92 | ||
| 20260504024631 | 10 | 0.0 | 0.0 | 0.00 | 0.00 | 0.00 | 93 | ||
| 20260504021449 | 10 | 0.0 | 0.0 | 0.00 | 0.00 | 0.00 | 93 | ||
| 20260504020416 | 9 | 0.0 | 0.0 | 0.00 | 0.00 | 0.00 | 92 | ||
| 20260504015343 | 9 | 0.0 | 0.0 | 0.00 | 0.00 | 0.00 | 92 | ||
| 20260504014309 | 8 | 0.0 | 0.0 | 0.00 | 0.00 | 0.00 | 92 | ||
| 20260504013236 | 8 | 0.0 | 0.0 | 0.00 | 0.00 | 0.00 | 91 | ||
| 20260504012202 | 8 | 0.0 | 0.0 | 0.00 | 0.00 | 0.00 | 91 | ||
| 20260504011128 | 9 | 0.0 | 0.0 | 0.00 | 0.00 | 0.00 | 91 | ||
| 20260504010055 | 9 | 0.0 | 0.0 | 0.00 | 0.00 | 0.00 | 91 | ||
| 20260504005021 | 9 | 0.0 | 0.0 | 0.00 | 0.00 | 0.00 | 91 | ||
| 20260504003948 | 10 | 0.0 | 0.0 | 0.00 | 0.00 | 0.00 | 91 | ||
| 20260504002913 | 10 | 0.0 | 0.0 | 0.00 | 0.00 | 0.00 | 91 | ||
| 20260504001840 | 9 | 0.0 | 0.0 | 0.00 | 0.00 | 0.00 | 91 | ||
| 20260504000806 | 9 | 0.0 | 0.0 | 0.00 | 0.00 | 0.00 | 90 | ||
| 20260503235732 | 9 | 0.0 | 0.0 | 0.00 | 0.00 | 0.00 | 89 | ||
| 20260503234658 | 9 | 0.0 | 0.0 | 0.00 | 0.00 | 0.00 | 89 | ||
| 20260503233624 | 10 | 0.0 | 0.0 | 0.00 | 0.00 | 0.00 | 89 | ||
| 20260503232550 | 10 | 0.0 | 0.0 | 0.00 | 0.00 | 0.00 | 89 | ||
| 20260503231516 | 10 | 0.0 | 0.0 | 0.00 | 0.00 | 0.00 | 89 | ||
| 20260503230443 | 10 | 0.0 | 0.0 | 0.00 | 0.00 | 0.00 | 89 | ||
| 20260503225409 | 10 | 0.0 | 0.0 | 0.00 | 0.00 | 0.00 | 89 | ||
| 20260503223301 | 10 | 0.0 | 0.0 | 0.00 | 0.00 | 0.00 | 88 | ||
| 20260503222227 | 10 | 0.0 | 0.0 | 0.00 | 0.00 | 0.00 | 89 | ||
| 20260503221153 | 10 | 0.0 | 0.0 | 0.00 | 0.00 | 0.00 | 87 | ||
| 20260503220119 | 10 | 0.0 | 0.0 | 0.00 | 0.00 | 0.00 | 87 | ||
| 20260503215046 | 10 | 0.0 | 0.0 | 0.00 | 0.00 | 0.00 | 87 | ||
| 20260503214011 | 10 | 0.0 | 0.0 | 0.00 | 0.00 | 0.00 | 86 | ||
| 20260503212937 | 10 | 0.0 | 0.0 | 0.00 | 0.00 | 0.00 | 86 | ||
| 20260503211903 | 11 | 0.0 | 0.0 | 0.00 | 0.00 | 0.00 | 85 | ||
| 20260503210829 | 11 | 0.0 | 0.0 | 0.00 | 0.00 | 0.00 | 85 | ||
| 20260503205755 | 11 | 0.0 | 0.0 | 0.00 | 0.00 | 0.00 | 85 | ||
| 20260503204721 | 11 | 0.0 | 0.0 | 0.00 | 0.00 | 0.00 | 85 | ||
| 20260503203648 | 12 | 0.0 | 0.0 | 0.00 | 0.00 | 0.00 | 84 | ||
| 20260503202613 | 12 | 0.0 | 0.0 | 0.00 | 0.00 | 0.00 | 83 | ||
| 20260503201539 | 12 | 0.0 | 0.0 | 0.00 | 0.00 | 0.00 | 83 | ||
| 20260503200505 | 12 | 0.0 | 0.0 | 0.00 | 0.00 | 0.00 | 82 | ||
| 20260503195431 | 12 | 0.0 | 0.0 | 0.00 | 0.00 | 0.00 | 82 | ||
| 20260503194358 | 12 | 0.0 | 0.0 | 0.00 | 0.00 | 0.00 | 82 | ||
| 20260503193323 | 12 | 0.0 | 0.0 | 0.00 | 0.00 | 0.00 | 81 | ||
| 20260503192249 | 12 | 0.0 | 0.0 | 0.00 | 0.00 | 0.00 | 80 | ||
| 20260503191215 | 13 | 0.0 | 0.0 | 0.00 | 0.00 | 0.00 | 79 | ||
| 20260503190141 | 13 | 0.0 | 0.0 | 0.00 | 0.00 | 0.00 | 78 | ||
| 20260503185106 | 13 | 0.0 | 0.0 | 0.00 | 0.00 | 0.00 | 76 | ||
| 20260503184032 | 14 | 0.0 | 0.0 | 0.00 | 0.00 | 0.00 | 75 | ||
| 20260503182957 | 15 | 0.0 | 0.0 | 0.00 | 0.00 | 0.00 | 74 | ||
| 20260503181921 | 16 | 0.0 | 0.0 | 0.00 | 0.00 | 0.00 | 72 | ||
| 20260503180844 | 16 | 0.0 | 0.0 | 0.00 | 0.00 | 0.00 | 71 | ||
| 20260503175808 | 17 | 0.0 | 0.0 | 0.00 | 0.00 | 0.00 | 70 | ||
| 20260503174731 | 18 | 0.0 | 0.0 | 0.00 | 0.00 | 0.00 | 67 | ||
| 20260503171542 | 19 | 0.0 | 0.0 | 0.00 | 0.00 | 0.00 | 60 | ||
| 20260503170504 | 20 | 0.0 | 0.0 | 0.00 | 0.00 | 0.00 | 60 | ||
| 20260503160118 | 21 | 0.0 | 0.0 | 0.00 | 0.00 | 0.00 | 55 | ||
| 20260503150805 | 22 | 0.0 | 0.0 | 0.00 | 0.00 | 0.00 | 46 | ||
| 20260503131055 | 27 | 0.0 | 0.0 | 0.00 | 0.00 | 0.00 | 40 | ||
| 20260503110225 | 27 | 0.0 | 0.0 | 0.00 | 0.00 | 0.00 | 41 | ||
| 20260503090423 | 26 | 0.0 | 0.0 | 0.00 | 0.00 | 0.00 | 44 | ||
| 20260503081050 | 22 | 0.0 | 0.0 | 0.00 | 0.00 | 0.00 | 50 | ||
| 20260503072813 | 17 | 0.0 | 0.0 | 0.00 | 0.00 | 0.00 | 69 | ||
| 20260503071736 | 18 | 0.0 | 0.0 | 0.00 | 0.00 | 0.00 | 65 | ||
| 20260503054210 | 10 | 0.0 | 0.0 | 0.00 | 0.00 | 0.00 | 96 | ||
| 20260503053136 | 9 | 0.0 | 0.0 | 0.00 | 0.00 | 0.00 | 95 | ||
| 20260503051031 | 8 | 0.0 | 0.0 | 0.00 | 0.00 | 0.00 | 95 | ||
| 20260503045959 | 7 | 0.0 | 0.0 | 0.00 | 0.00 | 0.00 | 95 | ||
| 20260503044926 | 6 | 0.0 | 0.0 | 0.00 | 0.00 | 0.00 | 95 | ||
| 20260503043854 | 6 | 0.0 | 0.0 | 0.00 | 0.00 | 0.00 | 94 | ||
| 20260503042823 | 6 | 0.0 | 0.0 | 0.00 | 0.00 | 0.00 | 94 |